Regional Weather Roundup
Issued by NWS Little Rock, AR

Home | Current Version | Previous Version | Text Only | Print | Product List | Glossary Off
Versions: 1 2 3 4 5 6 7 8 9 10 11 12 13 14 15 16 17 18 19 20 21 22 23 24 25 26 27 28 29 30 31 32 33 34 35 36 37 38 39 40 41 42 43 44 45 46 47 48 49 50

000
ASUS44 KLZK 191905
RWRLZK

WEATHER ROUNDUP FOR ARKANSAS
NATIONAL WEATHER SERVICE LITTLE ROCK AR
200 PM CDT FRI SEP 19 2014

NOTE: "FAIR" INDICATES FEW OR NO CLOUDS BELOW 12,000 FEET WITH NO
SIGNIFICANT WEATHER AND/OR OBSTRUCTIONS TO VISIBILITY.

ARZ001-003-010-029-192000-
NORTHWEST ARKANSAS

CITY           SKY/WX    TMP DP  RH WIND       PRES   REMARKS
FAYETTEVILLE   MOSUNNY   82  68  62 E5        30.03F HX  85
FORT SMITH     PTSUNNY   81  67  62 E6        30.00F
HARRISON       SUNNY     76  65  68 CALM      30.06F
BENTONVILLE    MOSUNNY   81  64  57 S5        30.05F
ROGERS         SUNNY     79  65  62 E5        30.05F
SILOAM SPGS    PTSUNNY   79  66  65 CALM      30.04F
HIGHFILL       PTSUNNY   80  68  66 CALM      30.03F
SPRINGDALE     MOSUNNY   81  68  65 CALM      30.05F
$$

ARZ004-005-016-192000-
NORTH CENTRAL ARKANSAS

CITY           SKY/WX    TMP DP  RH WIND       PRES   REMARKS
BATESVILLE     CLOUDY    81  64  57 SE5       30.03F
FLIPPIN        SUNNY     79  61  53 SE6       30.04F
MTN HOME       MOSUNNY   78  63  59 VRB5      30.04F
$$

ARZ040-041-192000-
WEST CENTRAL ARKANSAS

CITY           SKY/WX    TMP DP  RH WIND       PRES   REMARKS
MENA           SUNNY     82  72  69 CALM      30.02F HX  87
MOUNT IDA      MOSUNNY   82  69  64 CALM      30.00F HX  85
$$

ARZ009-017-025-026-028-192000-
NORTHEAST ARKANSAS

CITY           SKY/WX    TMP DP  RH WIND       PRES   REMARKS
CORNING        LGT RAIN  81  64  57 E7        30.04F
JONESBORO      SUNNY     82  63  52 NE10      30.02F
NEWPORT        CLOUDY    82  66  58 VRB3      30.04F
WALNUT RIDGE   MOSUNNY   81  64  57 E10       30.02F
BLYTHEVILLE    SUNNY     84  65  52 SE7       30.02F HX  86
$$

ARZ022-023-033-042-044-192000-
CENTRAL ARKANSAS

CITY           SKY/WX    TMP DP  RH WIND       PRES   REMARKS
LITTLE ROCK    MOSUNNY   83  66  56 E8        30.01F HX  85
N LITTLE ROCK  MOSUNNY   85  71  61 E8        30.01F HX  90
JACKSONVILLE   MOSUNNY   83  69  61 VRB2      30.01F HX  87
SEARCY         PTSUNNY   82  68  62 SE7       30.03F HX  85
HOT SPRINGS    PTSUNNY   84  68  58 VRB3      30.01F HX  87
RUSSELLVILLE   MOSUNNY   83  68  60 VRB6      30.02F HX  86
CLINTON          N/A     82  68  61 SE5       30.02F HX  85
$$

ARZ036-192000-
EAST ARKANSAS

CITY           SKY/WX    TMP DP  RH WIND       PRES   REMARKS
WEST MEMPHIS   SUNNY     81  68  64 SE6       30.01F
$$

ARZ050-053-066-070-073-192000-
SOUTHWEST ARKANSAS

CITY           SKY/WX    TMP DP  RH WIND       PRES   REMARKS
ARKADELPHIA    MOCLDY    85  72  65 VRB6      30.00F HX  91
CAMDEN         CLOUDY    81  68  65 NE7       30.01F
TEXARKANA      CLOUDY    77  72  84 E6        30.00F
EL DORADO      CLOUDY    80  70  71 CALM      30.01F
DE QUEEN       MOSUNNY   83  72  69 E5        29.97F HX  88
$$

ARZ056-057-069-192000-
SOUTHEAST ARKANSAS

CITY           SKY/WX    TMP DP  RH WIND       PRES   REMARKS
PINE BLUFF     MOSUNNY   84  68  58 S6        30.01F HX  87
STUTTGART      PTSUNNY   82  66  57 E6        30.02F HX  85
MONTICELLO     PTSUNNY   84  68  58 VRB7      30.00F HX  87

$$




USA.gov is the U.S. government's official web portal to all federal, state and local government web resources and services.